Mercedita, PR

7:04 PM AST on January 18, 2017 (GMT -0400)
Mercedita

Weather History for TJPS - January, 2014

Change the Weather History Date:

Saturday, January 4, 2014

  Actual Average Record
Temperature  
Mean Temperature 80 °F -  
Max Temperature 89 °F 85 °F 89 °F (1997)
Min Temperature 71 °F 68 °F 62 °F (2001)
Cooling Degree Days 15    
Growing Degree Days 30 (Base 50)    
Moisture  
Dew Point 69 °F    
Average Humidity 73    
Maximum Humidity 94    
Minimum Humidity 52    
Precipitation  
Precipitation 0.00 in - - ()
Sea Level Pressure  
Sea Level Pressure 30.03 in    
Wind  
Wind Speed 4 mph (East)    
Max Wind Speed 14 mph    
Max Gust Speed 23 mph    
Visibility 10 miles    
Events      
Averages and records for this station are not official NWS values.
T = Trace of Precipitation, MM = Missing Value Source: NWS Daily Summary

Daily Weather History Graph

Daily Weather History Graph

Search for Another Location

Airport or City:

Trip Planner

Search our weather history database for the weather conditions in past years. The results will help you decide how hot, cold, wet, or windy it might be!

Date:

Astronomy

Jan. 04, 2014 Rise Set
Actual Time 6:58 AM AST 6:04 PM AST
Civil Twilight 6:35 AM AST 6:27 PM AST
Nautical Twilight 6:07 AM AST 6:54 PM AST
Astronomical Twilight 5:41 AM AST 7:21 PM AST
Moon 9:34 AM AST (1/4) 9:41 PM AST (1/4)
Length of Visible Light 11h 52m
Length of Day
11h 05m
Waxing Crescent, 15% of the Moon is Illuminated
Jan 4
Waxing Crescent
Jan 7
First Quarter
Jan 16
Full
Jan 24
Last Quarter
Jan 30
New

Hourly Weather History & Observations

Time (AST) Temp. Heat Index Dew Point Humidity Pressure Visibility Wind Dir Wind Speed Gust Speed Precip Events Conditions
12:50 AM 71.6 °F - 66.2 °F 83% 30.05 in 10.0 mi Calm Calm - N/A   Partly Cloudy
1:50 AM 71.6 °F - 66.2 °F 83% 30.05 in 10.0 mi Calm Calm - N/A   Partly Cloudy
3:50 AM 73.4 °F - 71.6 °F 94% 30.03 in 10.0 mi ENE 5.8 mph - N/A   Mostly Cloudy
4:50 AM 73.4 °F - 71.6 °F 94% 30.03 in 10.0 mi NE 5.8 mph - N/A   Mostly Cloudy
5:50 AM 75.2 °F - 68.0 °F 78% 30.03 in 10.0 mi Calm Calm - N/A   Mostly Cloudy
6:50 AM 75.2 °F - 68.0 °F 78% 30.04 in 10.0 mi Calm Calm - N/A   Mostly Cloudy
7:50 AM 75.2 °F - 68.0 °F 78% 30.05 in 10.0 mi Calm Calm - N/A   Partly Cloudy
8:50 AM 80.6 °F 83.9 °F 69.8 °F 70% 30.08 in 10.0 mi East 9.2 mph - N/A   Partly Cloudy
9:50 AM 84.2 °F 88.4 °F 69.8 °F 62% 30.08 in 10.0 mi East 11.5 mph - N/A   Partly Cloudy
10:50 AM 87.8 °F 91.4 °F 68.0 °F 52% 30.08 in 10.0 mi ESE 11.5 mph - N/A   Partly Cloudy
11:50 AM 87.8 °F 91.4 °F 68.0 °F 52% 30.05 in 10.0 mi SE 11.5 mph - N/A   Partly Cloudy
2:50 PM 87.8 °F 97.6 °F 75.2 °F 66% 29.98 in 10.0 mi ESE 11.5 mph 23.0 mph N/A   Partly Cloudy
3:50 PM 89.6 °F 96.2 °F 71.6 °F 55% 29.98 in 10.0 mi SSE 13.8 mph - N/A   Mostly Cloudy
4:50 PM 84.2 °F 87.3 °F 68.0 °F 58% 29.99 in 10.0 mi ESE 11.5 mph 20.7 mph N/A   Mostly Cloudy
5:58 PM 82.4 °F 86.3 °F 69.8 °F 66% 30.00 in 10.0 mi East 6.9 mph - N/A   Mostly Cloudy
6:50 PM 80.6 °F 83.9 °F 69.8 °F 70% 30.00 in 10.0 mi ENE 5.8 mph - N/A   Scattered Clouds
7:50 PM 78.8 °F - 69.8 °F 74% 30.01 in 10.0 mi East 5.8 mph - N/A   Mostly Cloudy
8:50 PM 77.0 °F - 69.8 °F 78% 30.03 in 10.0 mi Calm Calm - N/A   Scattered Clouds
9:50 PM 75.2 °F - 69.8 °F 83% 30.04 in 10.0 mi ENE 5.8 mph - N/A   Scattered Clouds
10:50 PM 75.2 °F - 68.0 °F 78% 30.04 in 8.0 mi Calm Calm - N/A   Scattered Clouds
11:50 PM 75.2 °F - 68.0 °F 78% 30.04 in 8.0 mi NE 5.8 mph - N/A   Scattered Clouds